Time,TemperatureF,DewpointF,PressureIn,WindDirection,WindDirectionDegrees,WindSpeedMPH,WindSpeedGustMPH,Humidity,HourlyPrecipIn,Conditions,Clouds,dailyrainin,SoftwareType,DateUTC
2013-03-11 00:02:00,47.0,33.0,-100.00,SSE,152,13.0,-999.0,58,-99.99,,,-99.99,,2013-03-11 04:02:00,
2013-03-11 00:12:00,47.0,33.0,-100.00,SSE,152,13.0,-999.0,58,-99.99,,,-99.99,,2013-03-11 04:12:00,
2013-03-11 00:22:00,47.0,35.0,-100.00,SSE,153,11.0,-999.0,63,-99.99,,,-99.99,,2013-03-11 04:22:00,
2013-03-11 00:33:00,46.0,37.0,-100.00,SSE,155,9.0,-999.0,68,-99.99,,,-99.99,,2013-03-11 04:33:00,
2013-03-11 00:43:00,46.0,37.0,-100.00,SSE,155,9.0,-999.0,68,-99.99,,,-99.99,,2013-03-11 04:43:00,
2013-03-11 00:53:00,46.0,37.0,-100.00,SSE,152,8.0,-999.0,71,-99.99,,,-99.99,,2013-03-11 04:53:00,
2013-03-11 01:03:00,46.0,38.0,-100.00,SSE,156,8.0,-999.0,73,-99.99,,,-99.99,,2013-03-11 05:03:00,
2013-03-11 01:12:00,46.0,38.0,-100.00,SSE,156,8.0,-999.0,73,-99.99,,,-99.99,,2013-03-11 05:12:00,
2013-03-11 01:22:00,45.0,38.0,-100.00,SE,146,10.0,-999.0,77,-99.99,,,-99.99,,2013-03-11 05:22:00,
2013-03-11 01:32:00,45.0,39.0,-100.00,SSE,151,10.0,-999.0,79,-99.99,,,-99.99,,2013-03-11 05:32:00,
2013-03-11 01:42:00,45.0,39.0,-100.00,SSE,151,10.0,-999.0,79,-99.99,,,-99.99,,2013-03-11 05:42:00,
2013-03-11 01:52:00,45.0,39.0,-100.00,SE,143,9.0,-999.0,80,-99.99,,,-99.99,,2013-03-11 05:52:00,
2013-03-11 02:02:00,45.0,39.0,-100.00,SE,145,9.0,-999.0,81,-99.99,,,-99.99,,2013-03-11 06:02:00,
2013-03-11 02:12:00,45.0,39.0,-100.00,SE,145,9.0,-999.0,81,-99.99,,,-99.99,,2013-03-11 06:12:00,
2013-03-11 02:22:00,44.0,40.0,-100.00,SSE,152,9.0,-999.0,82,-99.99,,,-99.99,,2013-03-11 06:22:00,
2013-03-11 02:32:00,44.0,40.0,-100.00,SSE,167,8.0,-999.0,84,-99.99,,,-99.99,,2013-03-11 06:32:00,
2013-03-11 02:42:00,44.0,40.0,-100.00,SSE,167,8.0,-999.0,84,-99.99,,,-99.99,,2013-03-11 06:42:00,
2013-03-11 02:53:00,44.0,40.0,-100.00,South,182,8.0,-999.0,84,-99.99,,,-99.99,,2013-03-11 06:53:00,
2013-03-11 03:03:00,44.0,40.0,-100.00,SSE,165,8.0,-999.0,86,-99.99,,,-99.99,,2013-03-11 07:03:00,
2013-03-11 03:12:00,44.0,40.0,-100.00,SSE,165,8.0,-999.0,86,-99.99,,,-99.99,,2013-03-11 07:12:00,
2013-03-11 03:22:00,44.0,40.0,-100.00,SSE,158,10.0,-999.0,87,-99.99,,,-99.99,,2013-03-11 07:22:00,
2013-03-11 03:32:00,44.0,41.0,-100.00,SSE,149,9.0,-999.0,88,-99.99,,,-99.99,,2013-03-11 07:32:00,
2013-03-11 03:42:00,44.0,41.0,-100.00,SSE,149,9.0,-999.0,88,-99.99,,,-99.99,,2013-03-11 07:42:00,
2013-03-11 03:52:00,44.0,41.0,-100.00,SSE,168,8.0,-999.0,87,-99.99,,,-99.99,,2013-03-11 07:52:00,
2013-03-11 04:02:00,44.0,41.0,-100.00,South,172,10.0,-999.0,88,-99.99,,,-99.99,,2013-03-11 08:02:00,
2013-03-11 04:12:00,44.0,41.0,-100.00,South,172,10.0,-999.0,88,-99.99,,,-99.99,,2013-03-11 08:12:00,
2013-03-11 04:22:00,44.0,41.0,-100.00,SSE,162,9.0,-999.0,89,-99.99,,,-99.99,,2013-03-11 08:22:00,
2013-03-11 04:32:00,44.0,41.0,-100.00,South,178,8.0,-999.0,89,-99.99,,,-99.99,,2013-03-11 08:32:00,
2013-03-11 04:42:00,44.0,41.0,-100.00,South,178,8.0,-999.0,89,-99.99,,,-99.99,,2013-03-11 08:42:00,
2013-03-11 04:52:00,44.0,41.0,-100.00,South,182,10.0,-999.0,89,-99.99,,,-99.99,,2013-03-11 08:52:00,
2013-03-11 05:02:00,43.0,41.0,-100.00,South,181,11.0,-999.0,90,-99.99,,,-99.99,,2013-03-11 09:02:00,
2013-03-11 05:12:00,43.0,41.0,-100.00,South,181,11.0,-999.0,90,-99.99,,,-99.99,,2013-03-11 09:12:00,
2013-03-11 05:23:00,43.0,40.0,-100.00,South,172,10.0,-999.0,89,-99.99,,,-99.99,,2013-03-11 09:23:00,
2013-03-11 05:32:00,43.0,40.0,-100.00,South,171,9.0,-999.0,89,-99.99,,,-99.99,,2013-03-11 09:32:00,
2013-03-11 05:42:00,43.0,40.0,-100.00,South,171,9.0,-999.0,89,-99.99,,,-99.99,,2013-03-11 09:42:00,
2013-03-11 05:53:00,43.0,40.0,-100.00,SSE,166,10.0,-999.0,89,-99.99,,,-99.99,,2013-03-11 09:53:00,
2013-03-11 06:02:00,43.0,40.0,-100.00,South,170,9.0,-999.0,89,-99.99,,,-99.99,,2013-03-11 10:02:00,
2013-03-11 06:12:00,43.0,40.0,-100.00,South,170,9.0,-999.0,89,-99.99,,,-99.99,,2013-03-11 10:12:00,
2013-03-11 06:22:00,43.0,41.0,-100.00,South,173,8.0,-999.0,90,-99.99,,,-99.99,,2013-03-11 10:22:00,
2013-03-11 06:32:00,43.0,41.0,-100.00,SSE,162,8.0,-999.0,90,-99.99,,,-99.99,,2013-03-11 10:32:00,
2013-03-11 06:42:00,43.0,41.0,-100.00,SSE,162,8.0,-999.0,90,-99.99,,,-99.99,,2013-03-11 10:42:00,
2013-03-11 06:52:00,43.0,41.0,-100.00,SSE,168,7.0,-999.0,91,-99.99,,,-99.99,,2013-03-11 10:52:00,
2013-03-11 07:02:00,43.0,41.0,-100.00,South,181,7.0,-999.0,91,-99.99,,,-99.99,,2013-03-11 11:02:00,
2013-03-11 07:12:00,43.0,41.0,-100.00,South,181,7.0,-999.0,91,-99.99,,,-99.99,,2013-03-11 11:12:00,
2013-03-11 07:22:00,43.0,41.0,-100.00,South,176,8.0,-999.0,92,-99.99,,,-99.99,,2013-03-11 11:22:00,
2013-03-11 07:32:00,43.0,42.0,-100.00,South,172,9.0,-999.0,93,-99.99,,,-99.99,,2013-03-11 11:32:00,
2013-03-11 07:42:00,43.0,42.0,-100.00,South,172,9.0,-999.0,93,-99.99,,,-99.99,,2013-03-11 11:42:00,
2013-03-11 07:53:00,44.0,42.0,-100.00,South,176,10.0,-999.0,93,-99.99,,,-99.99,,2013-03-11 11:53:00,
2013-03-11 08:02:00,44.0,42.0,-100.00,SSE,167,10.0,-999.0,93,-99.99,,,-99.99,,2013-03-11 12:02:00,
2013-03-11 08:12:00,44.0,42.0,-100.00,SSE,167,10.0,-999.0,93,-99.99,,,-99.99,,2013-03-11 12:12:00,
2013-03-11 08:22:00,44.0,42.0,-100.00,SSE,161,9.0,-999.0,92,-99.99,,,-99.99,,2013-03-11 12:22:00,
2013-03-11 08:32:00,44.0,42.0,-100.00,South,171,8.0,-999.0,91,-99.99,,,-99.99,,2013-03-11 12:32:00,
2013-03-11 08:43:00,44.0,42.0,-100.00,South,171,8.0,-999.0,91,-99.99,,,-99.99,,2013-03-11 12:43:00,
2013-03-11 08:53:00,44.0,41.0,-100.00,South,188,10.0,-999.0,89,-99.99,,,-99.99,,2013-03-11 12:53:00,
2013-03-11 09:02:00,44.0,41.0,-100.00,South,186,9.0,-999.0,88,-99.99,,,-99.99,,2013-03-11 13:02:00,
2013-03-11 09:12:00,44.0,41.0,-100.00,South,186,9.0,-999.0,88,-99.99,,,-99.99,,2013-03-11 13:12:00,
2013-03-11 09:22:00,44.0,41.0,-100.00,South,184,10.0,-999.0,88,-99.99,,,-99.99,,2013-03-11 13:22:00,
2013-03-11 09:32:00,44.0,41.0,-100.00,South,187,8.0,-999.0,87,-99.99,,,-99.99,,2013-03-11 13:32:00,
2013-03-11 09:42:00,44.0,41.0,-100.00,South,187,8.0,-999.0,87,-99.99,,,-99.99,,2013-03-11 13:42:00,
2013-03-11 09:53:00,45.0,41.0,-100.00,South,173,7.0,-999.0,86,-99.99,,,-99.99,,2013-03-11 13:53:00,
2013-03-11 10:02:00,45.0,41.0,-100.00,South,176,8.0,-999.0,84,-99.99,,,-99.99,,2013-03-11 14:02:00,
2013-03-11 10:12:00,45.0,41.0,-100.00,South,176,8.0,-999.0,84,-99.99,,,-99.99,,2013-03-11 14:12:00,
2013-03-11 10:22:00,45.0,40.0,-100.00,SSE,161,10.0,-999.0,83,-99.99,,,-99.99,,2013-03-11 14:22:00,
2013-03-11 10:33:00,45.0,40.0,-100.00,SSE,160,9.0,-999.0,83,-99.99,,,-99.99,,2013-03-11 14:33:00,
2013-03-11 10:42:00,45.0,40.0,-100.00,SSE,160,9.0,-999.0,83,-99.99,,,-99.99,,2013-03-11 14:42:00,
2013-03-11 10:53:00,46.0,41.0,-100.00,SSE,149,6.0,-999.0,80,-99.99,,,-99.99,,2013-03-11 14:53:00,
2013-03-11 11:02:00,47.0,40.0,-100.00,SE,141,6.0,-999.0,76,-99.99,,,-99.99,,2013-03-11 15:02:00,
2013-03-11 11:12:00,47.0,40.0,-100.00,SE,141,6.0,-999.0,76,-99.99,,,-99.99,,2013-03-11 15:12:00,
2013-03-11 11:23:00,48.0,40.0,-100.00,SE,130,7.0,-999.0,75,-99.99,,,-99.99,,2013-03-11 15:23:00,
2013-03-11 11:32:00,48.0,40.0,-100.00,SSE,168,8.0,-999.0,73,-99.99,,,-99.99,,2013-03-11 15:32:00,
2013-03-11 11:42:00,48.0,40.0,-100.00,SSE,168,8.0,-999.0,73,-99.99,,,-99.99,,2013-03-11 15:42:00,
2013-03-11 11:53:00,49.0,41.0,-100.00,South,173,6.0,-999.0,72,-99.99,,,-99.99,,2013-03-11 15:53:00,
2013-03-11 12:02:00,49.0,41.0,-100.00,South,185,7.0,-999.0,73,-99.99,,,-99.99,,2013-03-11 16:02:00,
2013-03-11 12:13:00,49.0,41.0,-100.00,South,185,7.0,-999.0,73,-99.99,,,-99.99,,2013-03-11 16:13:00,
2013-03-11 12:22:00,50.0,42.0,-100.00,South,172,9.0,-999.0,73,-99.99,,,-99.99,,2013-03-11 16:22:00,
2013-03-11 12:32:00,50.0,42.0,-100.00,SSE,160,7.0,-999.0,73,-99.99,,,-99.99,,2013-03-11 16:32:00,
2013-03-11 12:43:00,50.0,42.0,-100.00,SSE,160,7.0,-999.0,73,-99.99,,,-99.99,,2013-03-11 16:43:00,
2013-03-11 12:52:00,52.0,43.0,-100.00,SSE,160,6.0,-999.0,71,-99.99,,,-99.99,,2013-03-11 16:52:00,
2013-03-11 13:02:00,52.0,43.0,-100.00,SSE,161,7.0,-999.0,70,-99.99,,,-99.99,,2013-03-11 17:02:00,
2013-03-11 13:15:00,52.0,43.0,-100.00,SSE,161,7.0,-999.0,70,-99.99,,,-99.99,,2013-03-11 17:15:00,
2013-03-11 13:26:00,53.0,44.0,-100.00,South,170,8.0,-999.0,72,-99.99,,,-99.99,,2013-03-11 17:26:00,
2013-03-11 13:35:00,53.0,44.0,-100.00,South,177,11.0,-999.0,71,-99.99,,,-99.99,,2013-03-11 17:35:00,
2013-03-11 13:42:00,53.0,44.0,-100.00,South,177,11.0,-999.0,71,-99.99,,,-99.99,,2013-03-11 17:42:00,
2013-03-11 13:53:00,54.0,44.0,-100.00,SSW,196,10.0,-999.0,70,-99.99,,,-99.99,,2013-03-11 17:53:00,
2013-03-11 14:02:00,54.0,45.0,-100.00,SSW,194,10.0,-999.0,70,-99.99,,,-99.99,,2013-03-11 18:02:00,
2013-03-11 14:12:00,54.0,45.0,-100.00,SSW,194,10.0,-999.0,70,-99.99,,,-99.99,,2013-03-11 18:12:00,
2013-03-11 14:23:00,55.0,45.0,-100.00,South,179,8.0,-999.0,67,-99.99,,,-99.99,,2013-03-11 18:23:00,
2013-03-11 14:33:00,56.0,45.0,-100.00,SSE,158,10.0,-999.0,66,-99.99,,,-99.99,,2013-03-11 18:33:00,
2013-03-11 14:42:00,56.0,45.0,-100.00,SSE,158,10.0,-999.0,66,-99.99,,,-99.99,,2013-03-11 18:42:00,
2013-03-11 14:53:00,56.0,44.0,-100.00,SSE,166,11.0,-999.0,64,-99.99,,,-99.99,,2013-03-11 18:53:00,
2013-03-11 15:02:00,56.0,44.0,-100.00,South,174,10.0,-999.0,64,-99.99,,,-99.99,,2013-03-11 19:02:00,
2013-03-11 15:12:00,56.0,44.0,-100.00,South,174,10.0,-999.0,64,-99.99,,,-99.99,,2013-03-11 19:12:00,
2013-03-11 15:22:00,57.0,45.0,-100.00,South,188,9.0,-999.0,63,-99.99,,,-99.99,,2013-03-11 19:22:00,
2013-03-11 15:33:00,57.0,45.0,-100.00,SSW,194,12.0,-999.0,62,-99.99,,,-99.99,,2013-03-11 19:33:00,
2013-03-11 15:42:00,57.0,45.0,-100.00,SSW,194,12.0,-999.0,62,-99.99,,,-99.99,,2013-03-11 19:42:00,
2013-03-11 15:53:00,58.0,45.0,-100.00,South,179,8.0,-999.0,61,-99.99,,,-99.99,,2013-03-11 19:53:00,
2013-03-11 16:02:00,58.0,45.0,-100.00,SSE,157,10.0,-999.0,61,-99.99,,,-99.99,,2013-03-11 20:02:00,
2013-03-11 16:12:00,58.0,45.0,-100.00,SSE,157,10.0,-999.0,61,-99.99,,,-99.99,,2013-03-11 20:12:00,
2013-03-11 16:22:00,58.0,45.0,-100.00,South,183,9.0,-999.0,61,-99.99,,,-99.99,,2013-03-11 20:22:00,
2013-03-11 16:32:00,59.0,46.0,-100.00,South,188,8.0,-999.0,61,-99.99,,,-99.99,,2013-03-11 20:32:00,
2013-03-11 16:43:00,59.0,46.0,-100.00,South,188,8.0,-999.0,61,-99.99,,,-99.99,,2013-03-11 20:43:00,
2013-03-11 16:53:00,59.0,46.0,-100.00,South,173,9.0,-999.0,61,-99.99,,,-99.99,,2013-03-11 20:53:00,
2013-03-11 17:03:00,60.0,46.0,-100.00,SSE,162,10.0,-999.0,61,-99.99,,,-99.99,,2013-03-11 21:03:00,
2013-03-11 17:13:00,60.0,46.0,-100.00,SSE,162,10.0,-999.0,61,-99.99,,,-99.99,,2013-03-11 21:13:00,
2013-03-11 17:22:00,60.0,47.0,-100.00,SSE,154,10.0,-999.0,60,-99.99,,,-99.99,,2013-03-11 21:22:00,
2013-03-11 17:32:00,61.0,47.0,-100.00,SE,140,13.0,-999.0,60,-99.99,,,-99.99,,2013-03-11 21:32:00,
2013-03-11 17:44:00,61.0,47.0,-100.00,SE,140,13.0,-999.0,60,-99.99,,,-99.99,,2013-03-11 21:44:00,
2013-03-11 17:53:00,59.0,46.0,-100.00,East,95,12.0,-999.0,61,-99.99,,,-99.99,,2013-03-11 21:53:00,
2013-03-11 18:03:00,59.0,46.0,-100.00,ESE,109,10.0,-999.0,61,-99.99,,,-99.99,,2013-03-11 22:03:00,
2013-03-11 18:12:00,59.0,46.0,-100.00,ESE,109,10.0,-999.0,61,-99.99,,,-99.99,,2013-03-11 22:12:00,
2013-03-11 18:22:00,59.0,46.0,-100.00,ESE,117,13.0,-999.0,61,-99.99,,,-99.99,,2013-03-11 22:22:00,
2013-03-11 18:32:00,59.0,46.0,-100.00,ESE,121,14.0,-999.0,62,-99.99,,,-99.99,,2013-03-11 22:32:00,
2013-03-11 18:43:00,59.0,46.0,-100.00,ESE,121,14.0,-999.0,62,-99.99,,,-99.99,,2013-03-11 22:43:00,
2013-03-11 18:53:00,59.0,47.0,-100.00,ESE,120,12.0,-999.0,64,-99.99,,,-99.99,,2013-03-11 22:53:00,
2013-03-11 19:03:00,58.0,47.0,-100.00,ESE,122,11.0,-999.0,65,-99.99,,,-99.99,,2013-03-11 23:03:00,
2013-03-11 19:12:00,58.0,47.0,-100.00,ESE,122,11.0,-999.0,65,-99.99,,,-99.99,,2013-03-11 23:12:00,
2013-03-11 19:22:00,58.0,47.0,-100.00,ESE,122,12.0,-999.0,66,-99.99,,,-99.99,,2013-03-11 23:22:00,
2013-03-11 19:32:00,58.0,47.0,-100.00,ESE,119,11.0,-999.0,66,-99.99,,,-99.99,,2013-03-11 23:32:00,
2013-03-11 19:43:00,58.0,47.0,-100.00,ESE,119,11.0,-999.0,66,-99.99,,,-99.99,,2013-03-11 23:43:00,
2013-03-11 19:54:00,57.0,47.0,-100.00,ESE,120,13.0,-999.0,67,-99.99,,,-99.99,,2013-03-11 23:54:00,
2013-03-11 20:02:00,57.0,47.0,-100.00,ESE,122,12.0,-999.0,66,-99.99,,,-99.99,,2013-03-12 00:02:00,
2013-03-11 20:13:00,57.0,47.0,-100.00,ESE,122,12.0,-999.0,66,-99.99,,,-99.99,,2013-03-12 00:13:00,
2013-03-11 20:23:00,57.0,46.0,-100.00,SE,127,13.0,-999.0,66,-99.99,,,-99.99,,2013-03-12 00:23:00,
2013-03-11 20:33:00,57.0,46.0,-100.00,SE,138,12.0,-999.0,66,-99.99,,,-99.99,,2013-03-12 00:33:00,
2013-03-11 20:42:00,57.0,46.0,-100.00,SE,138,12.0,-999.0,66,-99.99,,,-99.99,,2013-03-12 00:42:00,
2013-03-11 20:53:00,57.0,46.0,-100.00,SE,140,12.0,-999.0,67,-99.99,,,-99.99,,2013-03-12 00:53:00,
2013-03-11 21:02:00,57.0,46.0,-100.00,SE,139,13.0,-999.0,67,-99.99,,,-99.99,,2013-03-12 01:02:00,
2013-03-11 21:12:00,57.0,46.0,-100.00,SE,139,13.0,-999.0,67,-99.99,,,-99.99,,2013-03-12 01:12:00,
2013-03-11 21:22:00,56.0,46.0,-100.00,SE,137,12.0,-999.0,67,-99.99,,,-99.99,,2013-03-12 01:22:00,
2013-03-11 21:33:00,56.0,46.0,-100.00,SE,137,10.0,-999.0,67,-99.99,,,-99.99,,2013-03-12 01:33:00,
2013-03-11 21:42:00,56.0,46.0,-100.00,SE,137,10.0,-999.0,67,-99.99,,,-99.99,,2013-03-12 01:42:00,
2013-03-11 21:53:00,56.0,46.0,-100.00,SE,136,12.0,-999.0,67,-99.99,,,-99.99,,2013-03-12 01:53:00,
2013-03-11 22:02:00,56.0,46.0,-100.00,SE,140,11.0,-999.0,67,-99.99,,,-99.99,,2013-03-12 02:02:00,
2013-03-11 22:12:00,56.0,46.0,-100.00,SE,140,11.0,-999.0,67,-99.99,,,-99.99,,2013-03-12 02:12:00,
2013-03-11 22:22:00,56.0,46.0,-100.00,SE,142,10.0,-999.0,66,-99.99,,,-99.99,,2013-03-12 02:22:00,
2013-03-11 22:32:00,57.0,46.0,-100.00,SE,145,9.0,-999.0,66,-99.99,,,-99.99,,2013-03-12 02:32:00,
2013-03-11 22:42:00,57.0,46.0,-100.00,SE,145,9.0,-999.0,66,-99.99,,,-99.99,,2013-03-12 02:42:00,
2013-03-11 22:52:00,57.0,45.0,-100.00,SE,143,10.0,-999.0,65,-99.99,,,-99.99,,2013-03-12 02:52:00,
2013-03-11 23:02:00,57.0,45.0,-100.00,SSE,156,10.0,-999.0,64,-99.99,,,-99.99,,2013-03-12 03:02:00,
2013-03-11 23:12:00,57.0,45.0,-100.00,SSE,156,10.0,-999.0,64,-99.99,,,-99.99,,2013-03-12 03:12:00,
2013-03-11 23:22:00,57.0,45.0,-100.00,SE,146,13.0,-999.0,63,-99.99,,,-99.99,,2013-03-12 03:22:00,
2013-03-11 23:32:00,57.0,45.0,-100.00,SSE,147,14.0,-999.0,63,-99.99,,,-99.99,,2013-03-12 03:32:00,
2013-03-11 23:42:00,57.0,45.0,-100.00,SSE,147,14.0,-999.0,63,-99.99,,,-99.99,,2013-03-12 03:42:00,
2013-03-11 23:53:00,58.0,46.0,-100.00,SSE,155,13.0,-999.0,63,-99.99,,,-99.99,,2013-03-12 03:53:00,